period_start,C,m1,H,J0,J1,J2,J3,J4,J5,JA,JB,JC,JD,JJ,JK,JN,#
2015-07-08 00:02:05,0.01,0.22,0.00,24.55,28.07,30.48,4.69,26.52,1009.29,2035.11,3382.95,3249.75,3528.07,349.96,343.38,26.25,0000 0000 0000 0000 000000
2015-07-08 00:07:06,0.00,0.22,0.00,24.54,28.07,30.49,4.67,26.43,1009.30,2035.18,3382.93,3249.80,3528.15,350.05,343.16,26.28,0000 0000 0000 0000 000000
2015-07-08 00:12:07,0.01,0.22,0.00,24.54,28.07,30.50,4.77,26.45,1008.95,2035.31,3382.95,3249.84,3528.20,350.72,343.71,26.31,0000 0000 0000 0000 000000
2015-07-08 00:17:08,0.01,0.22,0.00,24.52,28.07,30.49,4.73,26.37,1008.96,2035.23,3382.88,3249.53,3528.07,350.41,343.70,26.34,0000 0000 0000 0000 000000
2015-07-08 00:22:10,0.01,0.22,0.00,24.52,28.07,30.50,4.81,26.45,1009.29,2035.27,3382.87,3249.47,3528.02,350.61,344.15,26.37,0000 0000 0000 0000 000000
2015-07-08 00:27:11,0.01,0.22,0.00,24.52,28.07,30.51,4.73,26.48,1009.20,2035.43,3382.95,3249.74,3528.09,349.77,343.08,26.40,0000 0000 0000 0000 000000
2015-07-08 00:32:12,-0.02,0.22,0.00,24.52,28.07,30.50,4.76,26.46,1008.99,2035.42,3382.98,3249.89,3528.13,350.07,343.60,26.43,0000 0000 0000 0000 000000
2015-07-08 00:37:13,-0.00,0.22,0.00,24.52,28.07,30.48,4.75,26.47,1008.96,2035.31,3382.95,3249.67,3528.03,350.24,343.49,26.46,0000 0000 0000 0000 000000
2015-07-08 00:42:15,0.01,0.22,0.00,24.52,28.07,30.47,4.70,26.57,1008.84,2035.18,3382.83,3249.24,3528.01,349.74,343.12,26.48,0000 0000 0000 0000 000000
2015-07-08 00:47:16,-0.00,0.22,0.00,24.52,28.07,30.47,4.69,26.56,1008.81,2035.23,3382.87,3249.20,3528.00,350.03,343.34,26.51,0000 0000 0000 0000 000000
2015-07-08 00:52:17,0.01,0.22,0.00,24.53,28.07,30.48,4.59,26.51,1008.76,2035.25,3382.83,3249.15,3528.00,349.50,342.70,26.54,0000 0000 0000 0000 000000
2015-07-08 00:57:18,-0.01,0.22,0.00,24.53,28.07,30.50,4.75,26.53,1008.48,2035.21,3382.80,3249.12,3528.00,350.05,343.15,26.57,0000 0000 0000 0000 000000
2015-07-08 01:02:19,0.01,0.22,0.00,24.51,28.07,30.48,4.69,26.46,1008.39,2035.18,3382.74,3249.13,3528.00,349.78,342.88,26.60,0000 0000 0000 0000 000000
2015-07-08 01:07:21,0.01,0.22,0.00,24.52,28.07,30.47,4.61,26.46,1008.61,2035.20,3382.51,3249.08,3528.00,349.88,343.12,26.63,0000 0000 0000 0000 000000
2015-07-08 01:12:22,0.01,0.22,0.00,24.52,28.07,30.48,4.71,26.47,1008.43,2035.24,3382.39,3249.09,3528.00,349.81,343.28,26.66,0000 0000 0000 0000 000000
2015-07-08 01:17:23,-0.01,0.22,0.00,24.52,28.07,30.48,4.54,26.43,1008.32,2035.15,3382.19,3249.04,3528.00,349.51,342.68,26.69,0000 0000 0000 0000 000000
2015-07-08 01:22:25,0.02,0.22,0.00,24.52,28.07,30.49,4.63,26.43,1008.38,2035.24,3382.12,3249.03,3528.00,349.36,342.48,26.72,0000 0000 0000 0000 000000
2015-07-08 01:27:26,-0.01,0.22,0.00,24.53,28.07,30.48,4.73,26.55,1008.32,2035.22,3382.25,3249.03,3528.00,349.86,342.91,26.75,0000 0000 0000 0000 000000
2015-07-08 01:32:27,0.06,0.22,0.00,24.55,28.07,30.45,4.65,26.46,1008.40,2035.48,3382.19,3249.06,3528.00,350.14,343.14,26.78,0000 0000 0000 0000 000000
2015-07-08 01:37:28,-0.01,0.22,0.00,24.55,28.07,30.45,4.67,26.50,1008.41,2035.54,3382.17,3249.05,3528.00,349.64,342.74,26.81,0000 0000 0000 0000 000000
2015-07-08 01:42:30,-0.00,0.22,0.00,24.54,28.07,30.47,4.66,26.48,1008.33,2035.41,3382.12,3249.04,3528.00,349.46,342.51,26.84,0000 0000 0000 0000 000000
2015-07-08 01:47:31,-0.03,0.22,0.00,24.54,28.07,30.48,4.73,26.60,1008.33,2035.48,3382.24,3249.04,3528.00,349.75,342.87,26.87,0000 0000 0000 0000 000000
2015-07-08 01:52:32,-0.02,0.22,0.00,24.53,28.06,30.46,4.74,26.61,1008.32,2035.16,3382.13,3249.04,3528.00,350.15,342.98,26.89,0000 0000 0000 0000 000000
2015-07-08 01:57:34,-0.01,0.22,0.00,24.55,28.06,30.44,4.74,26.62,1008.35,2035.11,3382.11,3249.02,3528.00,350.26,343.40,26.92,0000 0000 0000 0000 000000
2015-07-08 02:02:35,0.03,0.22,0.00,24.54,28.05,30.48,4.67,26.57,1008.71,2035.28,3382.44,3249.10,3528.00,349.61,342.89,26.95,0000 0000 0000 0000 000000
2015-07-08 02:07:36,0.01,0.22,0.00,24.54,28.05,30.48,4.75,26.63,1008.80,2035.30,3382.49,3249.09,3528.00,350.47,343.72,26.98,0000 0000 0000 0000 000000
2015-07-08 02:12:37,0.00,0.22,0.00,24.53,28.05,30.48,4.64,26.54,1008.76,2035.38,3382.53,3249.13,3528.00,350.29,343.44,27.01,0000 0000 0000 0000 000000
2015-07-08 02:17:38,-0.02,0.22,0.00,24.52,28.05,30.47,4.71,26.55,1008.35,2035.27,3382.58,3249.11,3528.00,350.13,343.23,27.04,0000 0000 0000 0000 000000
2015-07-08 02:22:40,-0.01,0.22,0.00,24.52,28.05,30.45,4.71,26.52,1008.33,2035.26,3382.65,3249.13,3528.00,349.60,342.81,27.07,0000 0000 0000 0000 000000
2015-07-08 02:27:41,0.02,0.22,0.00,24.53,28.05,30.47,4.67,26.64,1008.33,2035.40,3382.80,3249.34,3528.02,349.94,343.02,27.10,0000 0000 0000 0000 000000
2015-07-08 02:32:42,-0.01,0.22,0.00,24.52,28.05,30.43,4.63,26.58,1008.32,2035.43,3382.77,3249.41,3528.01,349.74,342.93,27.13,0000 0000 0000 0000 000000
2015-07-08 02:37:43,-0.01,0.22,0.00,24.53,28.05,30.45,4.71,26.58,1008.31,2035.23,3382.44,3249.17,3528.01,349.80,342.87,27.16,0000 0000 0000 0000 000000
2015-07-08 02:42:44,0.04,0.22,0.00,24.53,28.05,30.45,4.73,26.67,1008.52,2035.35,3382.29,3249.15,3528.01,350.35,343.41,27.19,0000 0000 0000 0000 000000
2015-07-08 02:47:46,0.01,0.22,0.00,24.52,28.05,30.48,4.69,26.60,1008.68,2035.49,3382.52,3249.26,3528.00,349.90,343.37,27.22,0000 0000 0000 0000 000000
2015-07-08 02:52:47,0.01,0.22,0.00,24.51,28.05,30.49,4.73,26.59,1008.38,2035.69,3382.90,3249.58,3528.01,350.22,343.19,27.25,0000 0000 0000 0000 000000
2015-07-08 02:57:49,0.00,0.22,0.00,24.50,28.04,30.48,4.67,26.46,1008.30,2035.65,3382.80,3249.59,3528.02,349.73,342.85,27.28,0000 0000 0000 0000 000000
2015-07-08 03:02:50,-0.03,0.22,0.00,24.50,28.04,30.49,4.72,26.55,1008.07,2035.59,3382.82,3249.52,3528.02,349.84,342.94,27.30,0000 0000 0000 0000 000000
2015-07-08 03:07:51,0.03,0.22,0.00,24.50,28.04,30.47,4.74,26.62,1008.31,2035.80,3382.87,3249.73,3528.03,349.99,343.14,27.33,0000 0000 0000 0000 000000
2015-07-08 03:12:53,0.00,0.22,0.00,24.50,28.03,30.45,4.72,26.68,1008.31,2035.79,3382.85,3249.69,3528.03,349.81,343.03,27.36,0000 0000 0000 0000 000000
2015-07-08 03:17:54,0.01,0.22,0.00,24.51,28.02,30.47,4.71,26.65,1008.04,2035.64,3382.54,3249.45,3528.01,349.52,342.46,27.39,0000 0000 0000 0000 000000
2015-07-08 03:22:56,0.01,0.22,0.00,24.50,28.02,30.45,4.75,26.63,1008.01,2035.74,3382.34,3249.42,3528.01,350.28,343.11,27.42,0000 0000 0000 0000 000000
2015-07-08 03:27:57,-0.02,0.22,0.00,24.50,28.02,30.45,4.69,26.57,1008.31,2035.57,3382.36,3249.31,3528.00,349.91,343.08,27.45,0000 0000 0000 0000 000000
2015-07-08 03:32:59,0.02,0.22,0.00,24.48,28.02,30.46,4.74,26.53,1008.28,2035.69,3382.44,3249.41,3528.01,350.33,343.45,27.48,0000 0000 0000 0000 000000
2015-07-08 03:38:00,-0.00,0.22,0.00,24.49,28.02,30.48,4.74,26.64,1008.28,2035.68,3382.27,3249.36,3528.01,350.15,343.36,27.51,0000 0000 0000 0000 000000
2015-07-08 03:43:01,0.01,0.22,0.00,24.47,28.02,30.48,4.71,26.66,1008.12,2035.80,3382.38,3249.54,3528.01,349.94,343.13,27.54,0000 0000 0000 0000 000000
2015-07-08 03:48:02,-0.02,0.22,0.00,24.48,28.02,30.45,4.70,26.63,1007.84,2035.89,3382.87,3249.86,3528.03,350.21,343.18,27.57,0000 0000 0000 0000 000000
2015-07-08 03:53:03,-0.00,0.22,0.00,24.49,28.02,30.46,4.67,26.65,1007.82,2035.86,3382.84,3249.87,3528.03,350.30,343.31,27.60,0000 0000 0000 0000 000000
2015-07-08 03:58:04,-0.01,0.22,0.00,24.49,28.02,30.46,4.68,26.63,1007.78,2035.85,3382.73,3249.80,3528.05,349.85,342.77,27.63,0000 0000 0000 0000 000000
2015-07-08 04:03:05,0.01,0.22,0.00,24.49,28.02,30.44,4.73,26.62,1007.79,2035.91,3382.59,3249.81,3528.07,350.27,343.20,27.66,0000 0000 0000 0000 000000
2015-07-08 04:08:07,0.02,0.22,0.00,24.48,28.01,30.45,4.73,26.56,1007.76,2035.94,3382.50,3249.78,3528.04,350.18,343.24,27.69,0000 0000 0000 0000 000000
2015-07-08 04:13:08,-0.01,0.22,0.00,24.47,28.01,30.44,4.65,26.49,1007.83,2035.92,3382.43,3249.70,3528.02,350.02,343.01,27.72,0000 0000 0000 0000 000000
2015-07-08 04:18:09,-0.02,0.22,0.00,24.47,28.01,30.46,4.70,26.53,1008.24,2035.88,3382.75,3249.77,3528.03,350.06,343.21,27.74,0000 0000 0000 0000 000000
2015-07-08 04:23:11,0.00,0.22,0.00,24.47,28.00,30.42,4.70,26.60,1008.27,2035.93,3382.89,3249.92,3528.08,349.97,343.13,27.77,0000 0000 0000 0000 000000
2015-07-08 04:28:12,0.02,0.22,0.00,24.47,28.00,30.45,4.71,26.62,1008.11,2035.94,3382.74,3249.89,3528.05,350.08,343.18,27.80,0000 0000 0000 0000 000000
2015-07-08 04:33:13,0.00,0.22,0.00,24.46,28.00,30.46,4.71,26.60,1007.85,2035.95,3382.75,3249.89,3528.05,349.80,342.82,27.83,0000 0000 0000 0000 000000
2015-07-08 04:38:15,-0.01,0.22,0.00,24.45,28.00,30.46,4.62,26.63,1007.82,2035.97,3382.91,3249.95,3528.12,349.51,342.69,27.86,0000 0000 0000 0000 000000
2015-07-08 04:43:16,-0.01,0.22,0.00,24.45,28.00,30.45,4.69,26.56,1007.53,2035.95,3382.93,3249.96,3528.08,350.25,343.11,27.89,0000 0000 0000 0000 000000
2015-07-08 04:48:17,-0.00,0.22,0.00,24.45,28.00,30.44,4.73,26.56,1007.35,2035.96,3382.93,3249.97,3528.13,349.80,342.69,27.92,0000 0000 0000 0000 000000
2015-07-08 04:53:18,0.02,0.22,0.00,24.45,28.00,30.44,4.72,26.52,1007.34,2035.97,3382.39,3249.93,3528.20,350.21,343.05,27.95,0000 0000 0000 0000 000000
2015-07-08 04:58:19,0.00,0.22,0.00,24.45,28.00,30.43,4.62,26.46,1007.35,2035.98,3382.28,3249.95,3528.09,349.53,342.38,27.98,0000 0000 0000 0000 000000
2015-07-08 05:03:21,0.01,0.22,0.00,24.45,28.00,30.43,4.73,26.52,1007.39,2035.98,3382.35,3249.90,3528.12,350.33,343.18,28.01,0000 0000 0000 0000 000000
2015-07-08 05:08:22,-0.02,0.22,0.00,24.43,28.00,30.42,4.63,26.54,1007.34,2035.99,3382.45,3249.95,3528.34,349.41,342.32,28.04,0000 0000 0000 0000 000000
2015-07-08 05:13:23,0.00,0.22,0.00,24.42,27.99,30.45,4.69,26.57,1007.34,2035.98,3382.59,3249.97,3528.26,350.07,342.93,28.07,0000 0000 0000 0000 000000
2015-07-08 05:18:25,-0.00,0.22,0.00,24.44,27.99,30.44,4.63,26.65,1007.43,2035.99,3382.66,3249.98,3528.34,349.41,342.25,28.10,0000 0000 0000 0000 000000
2015-07-08 05:23:26,0.00,0.22,0.00,24.42,27.98,30.45,4.70,26.63,1007.46,2035.99,3382.55,3249.96,3528.21,349.78,342.70,28.13,0000 0000 0000 0000 000000
2015-07-08 05:28:27,-0.00,0.22,0.00,24.33,27.98,30.57,4.66,26.69,1007.43,2035.98,3382.61,3249.98,3528.39,350.18,343.00,28.15,0000 0000 0000 0000 000000
2015-07-08 05:33:28,-0.01,0.22,0.00,24.25,27.97,30.68,4.73,26.63,1007.35,2035.99,3382.69,3249.98,3528.67,350.95,343.92,28.18,0000 0000 0000 0000 000000
2015-07-08 05:38:29,0.02,0.22,0.00,24.17,27.97,30.76,4.84,26.75,1007.37,2035.99,3382.32,3249.97,3528.37,350.18,343.49,28.21,0000 0000 0000 0000 000000
2015-07-08 05:43:31,-0.03,0.22,0.00,24.08,27.96,30.77,4.80,26.61,1007.35,2035.99,3382.79,3249.99,3528.74,350.38,343.77,28.24,0000 0000 0000 0000 000000
2015-07-08 05:48:32,-0.00,0.22,0.00,24.02,27.95,30.75,4.80,26.61,1007.65,2035.99,3382.95,3249.99,3528.96,350.42,343.82,28.27,0000 0000 0000 0000 000000
2015-07-08 05:53:33,0.00,0.22,0.00,23.98,27.94,30.73,4.75,26.73,1007.72,2035.99,3382.98,3249.99,3528.97,350.00,343.60,28.30,0000 0000 0000 0000 000000
2015-07-08 05:58:34,-0.00,0.22,0.00,23.96,27.92,30.66,4.81,26.67,1007.70,2036.01,3383.00,3250.04,3528.99,350.70,344.01,28.33,0000 0000 0000 0000 000000
2015-07-08 06:03:35,-0.00,0.22,0.00,23.93,27.91,30.66,4.71,26.61,1007.35,2036.01,3383.00,3250.12,3528.99,350.13,343.49,28.36,0000 0000 0000 0000 000000
2015-07-08 06:08:36,0.00,0.22,0.00,23.89,27.90,30.61,4.71,26.66,1007.14,2036.01,3383.00,3250.08,3529.00,349.85,343.38,28.39,0000 0000 0000 0000 000000
2015-07-08 06:13:37,-0.01,0.22,0.00,23.83,27.87,30.55,4.79,26.60,1007.20,2036.01,3383.01,3250.24,3529.01,350.02,343.69,28.42,0000 0000 0000 0000 000000
2015-07-08 06:18:38,-0.02,0.22,0.00,23.84,27.86,30.53,4.82,26.66,1007.11,2036.04,3383.12,3250.79,3529.04,350.52,344.06,28.45,0000 0000 0000 0000 000000
2015-07-08 06:23:39,-0.02,0.22,0.00,23.88,27.84,30.50,4.73,26.64,1007.23,2036.07,3383.61,3250.96,3529.35,349.76,343.07,28.48,0000 0000 0000 0000 000000
2015-07-08 06:28:41,0.03,0.22,0.00,23.91,27.82,30.44,4.66,26.65,1006.87,2036.28,3383.96,3250.99,3529.91,349.92,343.52,28.51,0000 0000 0000 0000 000000
2015-07-08 06:33:42,-0.00,0.22,0.00,23.96,27.80,30.39,4.71,26.77,1006.86,2036.42,3383.99,3250.99,3529.95,350.05,343.42,28.54,0000 0000 0000 0000 000000
2015-07-08 06:38:43,-0.00,0.22,0.00,24.00,27.79,30.36,4.67,26.70,1006.93,2036.48,3383.98,3250.99,3529.98,349.80,343.02,28.56,0000 0000 0000 0000 000000
2015-07-08 06:43:45,0.06,0.22,0.00,24.04,27.77,30.33,4.73,26.73,1007.11,2036.68,3383.99,3251.01,3529.99,350.14,343.02,28.59,0000 0000 0000 0000 000000
2015-07-08 06:48:46,0.01,0.22,0.00,24.09,27.76,30.31,4.76,26.68,1007.34,2036.85,3383.99,3251.01,3529.99,350.07,343.15,28.62,0000 0000 0000 0000 000000
2015-07-08 06:53:47,0.01,0.22,0.00,24.13,27.75,30.23,4.74,26.68,1007.33,2036.94,3383.99,3251.02,3530.00,349.79,342.95,28.65,0000 0000 0000 0000 000000
2015-07-08 06:58:48,-0.00,0.22,0.00,24.17,27.75,30.18,4.75,26.73,1007.21,2036.93,3383.99,3251.02,3530.00,350.59,343.72,28.68,0000 0000 0000 0000 000000
2015-07-08 07:03:50,-0.00,0.22,0.00,24.18,27.73,30.17,4.70,26.67,1006.90,2036.92,3383.99,3251.04,3530.00,349.94,342.98,28.71,0000 0000 0000 0000 000000
2015-07-08 07:08:51,-0.00,0.22,0.00,24.21,27.72,30.14,4.74,26.65,1007.20,2036.91,3383.99,3251.04,3530.00,350.16,343.13,28.74,0000 0000 0000 0000 000000
2015-07-08 07:13:52,-0.00,0.22,0.00,24.22,27.72,30.11,4.67,26.65,1007.32,2036.97,3384.01,3251.23,3530.02,349.94,343.09,28.77,0000 0000 0000 0000 000000
2015-07-08 07:18:53,0.01,0.22,0.00,24.24,27.72,30.11,4.76,26.68,1007.32,2036.98,3384.01,3251.25,3530.01,350.51,343.47,28.80,0000 0000 0000 0000 000000
2015-07-08 07:23:55,0.00,0.22,0.00,24.26,27.72,30.11,4.66,26.65,1007.33,2036.96,3384.01,3251.10,3530.00,349.39,342.59,28.83,0000 0000 0000 0000 000000
2015-07-08 07:28:56,-0.00,0.22,0.00,24.28,27.72,30.12,4.82,26.73,1007.33,2036.96,3384.02,3251.25,3530.02,350.60,343.80,28.86,0000 0000 0000 0000 000000
2015-07-08 07:33:57,-0.00,0.22,0.00,24.22,27.72,30.16,4.70,26.70,1007.27,2036.98,3384.01,3251.35,3530.03,350.65,343.62,28.89,0000 0000 0000 0000 000000
2015-07-08 07:38:58,0.00,0.22,0.00,24.13,27.72,30.23,4.68,26.70,1007.26,2036.98,3384.01,3251.34,3530.03,350.18,343.37,28.92,0000 0000 0000 0000 000000
2015-07-08 07:43:59,-0.01,0.22,0.00,24.07,27.72,30.35,4.71,26.58,1006.96,2036.98,3384.01,3251.24,3530.01,350.00,343.30,28.95,0000 0000 0000 0000 000000
2015-07-08 07:49:00,0.00,0.22,0.00,23.99,27.72,30.40,4.77,26.73,1007.20,2036.98,3384.00,3251.44,3530.04,350.02,343.27,28.97,0000 0000 0000 0000 000000
2015-07-08 07:54:02,0.00,0.22,0.00,23.91,27.72,30.47,4.76,26.74,1007.29,2036.98,3384.01,3251.40,3530.02,350.74,344.21,29.00,0000 0000 0000 0000 000000
2015-07-08 07:59:03,-0.01,0.22,0.00,23.83,27.72,30.52,4.76,26.68,1007.32,2036.98,3384.01,3251.49,3530.03,349.56,343.10,29.03,0000 0000 0000 0000 000000
2015-07-08 08:04:04,-0.00,0.22,0.00,23.79,27.72,30.46,4.72,26.72,1007.30,2036.98,3384.01,3251.70,3530.07,350.01,343.61,29.06,0000 0000 0000 0000 000000
2015-07-08 08:09:05,-0.01,0.22,0.00,23.90,27.71,30.40,4.71,26.93,1007.25,2036.99,3384.07,3251.89,3530.26,349.97,343.26,29.09,0000 0000 0000 0000 000000
2015-07-08 08:14:07,-0.01,0.22,0.00,24.07,27.72,30.40,4.75,26.88,1007.31,2036.99,3384.31,3251.94,3530.45,349.49,342.81,29.12,0000 0000 0000 0000 000000
2015-07-08 08:19:08,-0.00,0.22,0.00,24.10,27.72,30.39,4.66,26.88,1007.28,2036.99,3384.54,3251.95,3530.53,349.53,342.68,29.15,0000 0000 0000 0000 000000
2015-07-08 08:24:09,0.02,0.22,0.00,24.01,27.72,30.31,4.72,26.89,1007.23,2036.99,3384.24,3251.93,3530.26,350.00,343.46,29.18,0000 0000 0000 0000 000000
2015-07-08 08:29:11,0.01,0.22,0.00,24.05,27.72,30.22,4.70,26.77,1007.08,2036.99,3384.10,3251.73,3530.14,349.76,342.91,29.21,0000 0000 0000 0000 000000
2015-07-08 08:34:12,0.01,0.22,0.00,24.12,27.72,30.18,4.71,26.75,1007.06,2036.99,3384.02,3251.41,3530.04,350.30,343.41,29.24,0000 0000 0000 0000 000000
2015-07-08 08:39:14,0.02,0.22,0.00,24.16,27.72,30.16,4.80,26.96,1007.20,2036.99,3384.01,3251.31,3530.01,350.48,343.90,29.27,0000 0000 0000 0000 000000
2015-07-08 08:44:15,-0.03,0.22,0.00,24.19,27.72,30.14,4.74,26.92,1007.28,2036.99,3384.06,3251.56,3530.04,349.98,343.10,29.30,0000 0000 0000 0000 000000
2015-07-08 08:49:17,0.02,0.22,0.00,24.22,27.72,30.13,4.73,26.68,1007.07,2036.99,3384.04,3251.54,3530.04,349.71,342.85,29.33,0000 0000 0000 0000 000000
2015-07-08 08:54:18,0.00,0.22,0.00,24.25,27.72,30.13,4.70,26.87,1006.88,2036.99,3384.01,3251.18,3530.01,350.03,343.00,29.36,0000 0000 0000 0000 000000
2015-07-08 08:59:19,-0.00,0.22,0.00,24.27,27.72,30.12,4.77,26.78,1006.86,2036.99,3384.01,3251.23,3530.01,350.61,343.39,29.38,0000 0000 0000 0000 000000
2015-07-08 09:04:20,0.01,0.22,0.00,24.30,27.72,30.12,4.67,26.62,1006.88,2036.98,3384.00,3251.12,3530.00,349.54,342.31,29.41,0000 0000 0000 0000 000000
2015-07-08 09:09:22,0.00,0.22,0.00,24.31,27.72,30.12,4.75,26.80,1006.92,2036.98,3384.00,3251.07,3530.00,349.68,342.82,29.44,0000 0000 0000 0000 000000
2015-07-08 09:14:23,-0.00,0.22,0.00,24.34,27.72,30.13,4.72,26.78,1007.00,2036.96,3384.00,3251.04,3530.00,349.94,342.78,29.47,0000 0000 0000 0000 000000
2015-07-08 09:19:24,0.00,0.22,0.00,24.38,27.72,30.11,4.73,26.69,1006.91,2036.96,3384.00,3251.01,3530.00,350.28,343.03,29.50,0000 0000 0000 0000 000000
2015-07-08 09:24:26,0.01,0.22,0.00,24.41,27.73,30.11,4.65,26.71,1006.87,2036.97,3384.00,3251.02,3530.00,350.05,342.56,29.53,0000 0000 0000 0000 000000
2015-07-08 09:29:27,-0.01,0.22,0.00,24.43,27.75,30.12,4.71,26.70,1006.86,2036.96,3384.00,3251.00,3529.99,349.99,342.86,29.56,0000 0000 0000 0000 000000
2015-07-08 09:34:28,-0.01,0.22,0.00,24.45,27.75,30.12,4.64,26.68,1006.87,2036.89,3383.97,3251.00,3529.97,349.92,342.65,29.59,0000 0000 0000 0000 000000
2015-07-08 09:39:29,-0.00,0.22,0.00,24.47,27.75,30.13,4.66,26.74,1006.88,2036.89,3383.96,3251.00,3529.95,350.24,342.78,29.62,0000 0000 0000 0000 000000
2015-07-08 09:44:30,0.00,0.22,0.00,24.49,27.76,30.14,4.77,26.73,1006.86,2036.87,3383.95,3251.00,3529.91,350.53,343.19,29.65,0000 0000 0000 0000 000000
2015-07-08 09:49:31,0.01,0.22,0.00,24.52,27.77,30.14,4.64,26.75,1006.87,2036.89,3383.95,3251.00,3529.91,350.62,343.29,29.68,0000 0000 0000 0000 000000
2015-07-08 09:54:33,-0.02,0.22,0.00,24.54,27.77,30.15,4.79,26.76,1006.87,2036.78,3383.89,3250.98,3529.77,350.55,343.19,29.71,0000 0000 0000 0000 000000
2015-07-08 09:59:34,-0.01,0.22,0.00,24.56,27.79,30.16,4.69,26.67,1006.88,2036.58,3383.81,3250.97,3529.44,349.89,342.36,29.74,0000 0000 0000 0000 000000
2015-07-08 10:04:36,-0.02,0.22,0.00,24.58,27.80,30.17,4.65,26.62,1006.93,2036.46,3383.64,3250.95,3529.27,350.08,342.88,29.77,0000 0000 0000 0000 000000
2015-07-08 10:09:37,0.03,0.22,0.00,24.61,27.81,30.18,4.72,26.63,1007.01,2036.63,3383.77,3250.97,3529.30,350.78,342.92,29.80,0000 0000 0000 0000 000000
2015-07-08 10:14:38,-0.03,0.22,0.00,24.62,27.82,30.18,4.64,26.58,1007.04,2036.47,3383.66,3250.95,3529.20,349.83,342.31,29.82,0000 0000 0000 0000 000000
2015-07-08 10:19:39,-0.01,0.22,0.00,24.65,27.83,30.17,4.70,26.59,1006.98,2036.17,3383.28,3250.73,3529.02,350.24,342.71,29.85,0000 0000 0000 0000 000000
2015-07-08 10:24:40,-0.00,0.22,0.00,24.66,27.85,30.17,4.68,26.57,1007.22,2036.07,3383.10,3250.37,3529.01,350.20,342.96,29.88,0000 0000 0000 0000 000000
2015-07-08 10:29:42,0.01,0.22,0.00,24.67,27.87,30.20,4.68,26.69,1007.00,2036.04,3383.03,3250.13,3529.00,350.22,342.60,29.91,0000 0000 0000 0000 000000
2015-07-08 10:34:43,-0.00,0.22,0.00,24.67,27.88,30.23,4.73,26.63,1006.99,2036.02,3383.01,3250.04,3529.00,349.92,342.52,29.94,0000 0000 0000 0000 000000
2015-07-08 10:39:44,-0.00,0.22,0.00,24.66,27.90,30.28,4.70,26.63,1006.87,2036.00,3383.00,3250.01,3528.97,349.75,342.27,29.97,0000 0000 0000 0000 000000
2015-07-08 10:44:45,0.00,0.22,0.00,24.65,27.91,30.30,4.69,26.65,1006.85,2036.00,3383.00,3250.00,3528.91,349.90,342.37,30.00,0000 0000 0000 0000 000000
2015-07-08 10:49:46,0.00,0.22,0.00,24.65,27.92,30.33,4.69,26.58,1006.85,2036.00,3383.00,3249.99,3528.78,349.48,341.80,30.03,0000 0000 0000 0000 000000
2015-07-08 10:54:48,-0.00,0.22,0.00,24.63,27.94,30.36,4.79,26.64,1006.86,2036.00,3382.98,3249.99,3528.72,350.25,342.77,30.06,0000 0000 0000 0000 000000
2015-07-08 10:59:50,0.00,0.22,0.00,24.62,27.95,30.37,4.70,26.58,1006.86,2036.00,3382.98,3249.99,3528.60,349.91,342.29,30.09,0000 0000 0000 0000 000000
2015-07-08 11:04:51,0.00,0.22,0.00,24.61,27.96,30.38,4.68,26.57,1006.86,2036.00,3382.97,3249.99,3528.30,349.39,341.91,30.12,0000 0000 0000 0000 000000
2015-07-08 11:09:52,0.01,0.22,0.00,24.62,27.97,30.39,4.69,26.60,1006.85,2035.99,3382.82,3249.96,3528.12,349.78,342.24,30.15,0000 0000 0000 0000 000000
2015-07-08 11:14:54,0.00,0.22,0.00,24.62,27.97,30.39,4.69,26.60,1006.85,2035.98,3382.50,3249.89,3528.02,349.74,342.36,30.18,0000 0000 0000 0000 000000
2015-07-08 11:19:55,0.01,0.22,0.00,24.62,27.98,30.39,4.71,26.54,1006.85,2035.96,3382.44,3249.80,3528.01,350.15,342.63,30.21,0000 0000 0000 0000 000000
2015-07-08 11:24:56,0.01,0.22,0.00,24.61,28.00,30.39,4.70,26.63,1006.85,2035.98,3382.21,3249.63,3528.00,349.95,342.60,30.23,0000 0000 0000 0000 000000
2015-07-08 11:29:57,0.00,0.22,0.00,24.61,28.00,30.39,4.67,26.53,1006.85,2035.98,3382.07,3249.39,3528.00,350.17,342.61,30.26,0000 0000 0000 0000 000000
2015-07-08 11:34:58,0.00,0.22,0.00,24.62,28.00,30.39,4.66,26.63,1006.85,2035.96,3382.05,3249.29,3528.00,349.98,342.45,30.29,0000 0000 0000 0000 000000
2015-07-08 11:39:59,-0.01,0.22,0.00,24.62,28.01,30.40,4.81,26.74,1006.85,2035.88,3382.03,3249.11,3527.99,350.65,343.08,30.32,0000 0000 0000 0000 000000
2015-07-08 11:45:00,0.01,0.22,0.00,24.62,28.02,30.41,4.66,26.60,1006.85,2035.89,3382.02,3249.03,3527.98,350.14,342.56,30.35,0000 0000 0000 0000 000000
2015-07-08 11:50:02,-0.01,0.22,0.00,24.61,28.02,30.41,4.67,26.53,1006.85,2035.79,3382.01,3249.04,3527.98,349.27,342.11,30.38,0000 0000 0000 0000 000000
2015-07-08 11:55:03,-0.02,0.22,0.00,24.60,28.02,30.42,4.73,26.56,1006.85,2035.76,3382.00,3249.02,3527.97,350.00,342.46,30.41,0000 0000 0000 0000 000000
2015-07-08 12:00:04,-0.04,0.22,0.00,24.61,28.02,30.42,4.74,26.53,1006.85,2035.50,3382.00,3249.01,3527.90,350.43,342.98,30.44,0000 0000 0000 0000 000000
2015-07-08 12:05:05,-0.02,0.22,0.00,24.60,28.03,30.42,4.66,26.48,1006.85,2035.32,3382.00,3249.00,3527.76,350.13,342.45,30.47,0000 0000 0000 0000 000000
2015-07-08 12:10:07,0.02,0.22,0.00,24.62,28.05,30.44,4.65,26.53,1006.85,2035.23,3381.99,3249.00,3527.65,349.71,341.83,30.50,0000 0000 0000 0000 000000
2015-07-08 12:15:08,-0.00,0.22,0.00,24.63,28.05,30.44,4.71,26.52,1006.85,2035.33,3381.99,3249.00,3527.76,350.24,342.60,30.53,0000 0000 0000 0000 000000
2015-07-08 12:20:09,-0.01,0.22,0.00,24.64,28.05,30.43,4.76,26.54,1006.85,2035.26,3381.99,3249.00,3527.75,350.10,342.49,30.56,0000 0000 0000 0000 000000
2015-07-08 12:25:10,-0.00,0.22,0.00,24.64,28.05,30.44,4.66,26.52,1006.85,2035.16,3381.99,3249.00,3527.43,349.69,342.19,30.59,0000 0000 0000 0000 000000
2015-07-08 12:30:11,-0.01,0.22,0.00,24.63,28.05,30.44,4.72,26.50,1006.87,2035.07,3381.98,3249.00,3527.17,350.30,342.96,30.62,0000 0000 0000 0000 000000
2015-07-08 12:35:13,0.00,0.22,0.00,24.62,28.06,30.45,4.69,26.57,1006.88,2035.10,3381.99,3249.00,3527.20,350.09,342.66,30.64,0000 0000 0000 0000 000000
2015-07-08 12:40:14,-0.01,0.22,0.00,24.61,28.07,30.44,4.76,26.75,1006.87,2035.03,3381.96,3248.99,3527.07,350.70,342.92,30.67,0000 0000 0000 0000 000000
2015-07-08 12:45:16,-0.00,0.22,0.00,24.60,28.07,30.45,4.72,26.77,1006.85,2035.02,3381.90,3248.98,3527.03,350.12,342.56,30.70,0000 0000 0000 0000 000000
2015-07-08 12:50:17,0.00,0.22,0.00,24.57,28.07,30.46,4.72,26.68,1006.84,2035.04,3381.94,3248.98,3527.02,350.05,342.66,30.73,0000 0000 0000 0000 000000
2015-07-08 12:55:18,-0.00,0.22,0.00,24.57,28.07,30.47,4.68,26.61,1006.75,2035.02,3381.92,3248.98,3527.04,350.09,342.46,30.76,0000 0000 0000 0000 000000